sat.trackr.live / text

‹ back to catalog

NUSAT-52

NORAD 66692 · 2025-276AC

PAYLOAD ACTIVE UNKNOWN

§ Identity

Operator
Country
ARGN
Launch date
2025-11-28
Launch site
AFWTR
Launch vehicle
Mass (kg)
RCS (m²)

External: N2YO · Heavens-Above · Gunter

§ Orbital elements

Epoch: 2026-05-25T03:58:49.306080Z

Period
94.77 min
Inclination
97.4212°
Eccentricity
0.0004736
Mean motion
15.19433704 rev/d
Perigee alt
504.3 km
Apogee alt
510.8 km
Semi-major
6,885.7 km
B*
2.4387e-4
RAAN
219.1041°
Arg perigee
96.3250°
Mean anomaly
263.8525°
Rev number
2,692

§ Raw data

NUSAT-521 66692U 25276AC  26145.16584845  .00005101  00000+0  24387-3 0  99932 66692  97.4212 219.1041 0004736  96.3250 263.8525 15.19433704 26926

JSON: /api/v1/satellites/66692 · /tle

For live sub-satellite position, see the globe view (requires WebGL).

§ Visibility from observer

Set your observer location to see the next 7 days of passes ≥ 10°. The values pass through the URL so the page stays shareable.

No JS? Fill the form by hand. The geolocation button needs JavaScript.